RH
65 56 39 44 41 35 38 48 41 32 34 40 47 39 44 49 52 61 63 61 57 60 69 74 58 52 46 40 38 33 30 30 31 23 22 26 26 21 20 16 15 16 17
56 53 51 44 44 46 44 43 49 44 40 45 43 52 48 53 55 44 43 48 56 64 87 82 69 54 44 39 36 41 40 40 29 27 27 23 22 16 16 17 17 18 18
62 53 62 62 53 52 58 57 48 55 52 43 48 48 48 53 45 41 47 63 66 76 79 81 75 63 52 46 52 54 58 49 35 34 25 24 21 19 18 20 23 21 18
66 58 62 68 73 59 65 65 71 62 64 59 56 56 53 48 50 53 51 52 52 58 82 100 89 78 57 65 86 78 61 46 43 26 25 27 22 22 24 24 20 16 14
57 67 63 66 74 74 65 76 80 76 72 74 67 64 60 56 49 49 53 50 48 48 53 72 86 96 100 97 81 66 62 53 34 27 27 32 32 20 23 19 15 15 14
52 65 66 86 84 81 80 88 94 90 82 77 74 71 69 59 53 44 41 41 46 48 50 54 52 56 60 60 91 90 63 41 35 33 36 34 27 25 23 16 16 18 18
45 48 60 71 93 100 98 95 100 98 96 88 75 74 68 67 58 48 43 40 47 46 50 54 56 56 85 98 80 50 52 44 39 37 39 34 32 29 20 17 23 32 51
38 50 70 89 100 100 100 100 100 100 100 98 93 82 70 68 72 66 62 52 52 54 50 49 76 100 86 75 60 52 47 43 44 47 37 32 34 29 18 27 44 52 55
22 34 49 75 100 100 100 100 100 100 100 100 100 94 91 78 75 74 74 67 68 68 73 85 99 100 88 67 66 66 55 48 52 43 38 39 29 22 24 41 42 36 32
20 22 35 45 96 100 100 100 100 100 100 100 100 100 100 100 93 89 79 90 93 99 100 100 100 100 98 76 73 67 55 58 48 41 39 33 24 19 37 35 33 29 24
17 16 17 23 30 88 100 100 100 100 98 99 100 100 100 100 100 100 100 100 100 95 94 89 100 86 76 76 67 66 70 62 46 43 38 31 23 31 43 44 42 37 33
17 16 16 18 21 31 45 78 100 100 100 100 100 100 91 87 96 100 100 100 100 100 100 88 77 83 81 73 79 71 67 57 51 44 40 29 27 46 58 54 47 52 48
15 15 15 15 15 18 30 52 93 100 100 100 100 95 100 100 96 94 100 100 100 100 100 100 94 85 96 97 88 77 69 59 61 51 42 26 40 62 62 53 48 45 43
13 14 14 14 16 15 17 27 79 89 96 98 100 100 98 99 100 100 100 96 90 76 82 84 91 100 87 89 82 82 72 71 65 58 38 27 50 55 46 40 29 20 16
14 14 13 13 14 16 18 21 45 74 73 64 65 84 87 79 80 79 76 78 79 76 77 80 95 96 84 78 82 78 86 80 72 64 31 33 54 44 24 18 17 17 17
18 16 14 14 12 14 17 18 17 30 63 75 74 70 66 64 61 65 70 79 86 78 77 83 83 88 85 87 79 75 97 88 79 53 23 26 38 18 18 21 22 21 22
24 23 20 15 13 13 16 19 20 18 18 19 43 73 86 76 86 84 83 89 84 69 67 74 82 88 89 78 80 90 99 98 78 35 24 18 16 17 21 22 21 22 22
23 25 24 21 16 16 15 17 21 23 20 20 20 21 32 42 40 39 36 38 47 49 50 51 69 81 92 100 100 100 100 99 57 31 21 17 18 18 20 22 22 22 23
23 24 25 23 20 16 16 18 19 20 21 23 22 21 19 20 18 20 35 54 73 88 85 93 92 98 96 100 100 100 100 74 35 27 21 19 19 21 24 24 25 26 26
27 27 22 23 23 21 17 17 18 21 21 22 23 23 22 23 20 21 25 45 72 90 100 100 100 100 100 100 100 100 77 49 31 25 23 21 22 25 27 28 28 31 31
33 30 24 21 24 24 22 18 17 20 30 36 26 24 22 24 26 25 22 22 24 37 71 88 100 100 100 100 100 79 45 35 30 25 25 24 27 29 28 30 34 34 34
34 34 29 25 21 21 24 21 22 35 45 42 31 27 25 27 29 31 27 28 54 93 100 100 100 100 99 88 62 34 32 33 26 29 28 27 28 30 32 32 35 35 33
33 33 30 27 23 20 22 24 26 30 45 49 47 35 30 28 37 33 30 35 71 99 100 100 86 75 52 36 35 42 36 27 27 27 27 27 29 30 29 32 35 34 32
36 34 28 28 25 22 22 27 28 38 32 46 53 46 34 32 39 32 34 33 52 78 98 80 58 38 34 49 49 38 29 29 30 34 38 36 36 32 35 37 37 34 32
40 39 34 31 28 23 23 26 38 64 64 38 61 61 40 36 39 36 34 35 35 59 88 61 40 46 58 48 37 35 34 34 35 36 42 48 41 43 37 36 36 34 32
53 47 45 40 32 28 26 27 36 38 46 46 50 54 44 37 42 36 36 33 37 57 70 48 46 51 45 42 40 38 40 40 39 40 39 39 39 39 40 42 43 39 36
Wind_Speed
46 46 46 45 42 42 44 42 41 39 37 36 35 37 36 33 31 32 32 33 32 32 34 36 37 37 38 40 41 43 45 47 50 50 52 55 56 62 64 64 61 60 61
55 52 51 51 49 46 45 48 48 44 44 41 40 40 39 40 39 39 38 37 37 39 37 37 38 41 43 42 46 49 48 51 50 54 57 58 62 67 66 63 62 61 63
58 57 56 55 54 52 49 49 51 51 47 45 45 45 44 45 44 42 40 39 40 42 41 40 41 43 45 48 50 49 52 55 56 56 57 63 67 67 61 61 63 64 65
62 61 59 59 57 57 55 53 52 53 52 48 48 49 50 49 46 43 43 44 44 44 45 45 48 48 50 51 53 53 55 55 56 57 62 68 64 62 62 64 67 64 62
66 67 65 63 63 61 60 58 56 56 56 54 50 52 52 52 50 47 45 45 47 48 49 48 51 51 53 54 56 57 57 55 56 62 69 69 69 67 67 69 65 60 55
70 70 70 68 66 66 64 62 62 60 59 59 56 54 54 53 52 51 50 49 48 49 50 52 53 54 55 57 59 58 53 56 64 67 69 70 66 68 70 67 58 53 48
74 73 74 73 72 71 68 67 66 64 63 62 61 58 56 56 56 55 54 53 52 53 53 54 55 57 61 59 51 51 56 64 68 70 72 67 68 67 67 60 47 43 40
77 77 77 78 75 74 74 71 70 68 67 66 65 63 61 59 59 58 59 57 57 57 56 57 59 58 55 49 52 59 65 68 68 73 70 67 68 64 62 51 44 42 41
76 80 80 80 79 75 66 76 75 73 71 69 67 67 65 64 63 62 61 61 60 61 62 62 61 55 55 59 62 64 68 69 71 70 67 64 64 63 55 45 45 45 46
75 78 81 80 83 82 76 65 64 79 78 71 70 69 68 67 65 65 65 66 66 64 67 64 63 58 60 65 67 70 66 70 67 66 64 65 63 61 45 42 42 42 41
67 67 70 76 80 84 84 80 68 65 80 75 74 73 71 70 68 68 69 67 66 67 66 65 61 63 63 63 63 66 69 68 64 66 66 64 62 51 41 39 37 34 33
67 64 65 66 73 75 80 81 79 69 62 63 67 75 75 71 70 71 66 63 65 66 66 64 64 66 66 67 71 71 69 67 64 65 63 63 57 47 45 44 41 37 36
71 69 66 64 67 72 75 77 82 81 76 73 71 68 67 68 69 69 67 66 67 68 68 71 70 68 68 69 71 70 67 63 63 65 60 60 50 45 44 43 41 40 39
72 72 70 65 62 63 67 72 76 81 81 82 81 80 78 74 71 71 72 75 76 74 72 72 70 67 68 69 69 68 66 64 64 63 57 56 49 44 43 41 40 39 38
70 72 72 68 64 61 62 65 71 75 81 84 83 82 81 82 81 81 80 80 77 77 76 74 73 72 68 68 69 69 64 63 64 59 54 53 47 45 40 40 40 39 40
65 69 72 71 68 65 62 62 65 69 76 77 79 81 81 81 81 81 79 77 74 76 75 74 74 70 66 64 64 65 65 65 63 57 53 50 46 41 41 42 41 41 42
60 61 66 70 71 69 65 63 62 64 65 68 73 73 72 75 74 75 74 74 75 76 74 72 68 65 63 61 62 64 67 66 61 55 51 46 45 44 45 46 48 48 48
58 61 62 67 69 70 69 66 65 63 61 60 61 63 68 71 72 74 75 75 75 72 72 71 67 63 62 64 65 66 67 62 59 54 50 48 47 48 49 52 53 54 55
58 61 62 63 66 67 69 69 67 65 62 60 58 57 55 53 52 51 53 54 56 58 61 63 64 64 65 67 67 64 61 58 56 51 51 52 52 53 55 57 58 59 60
57 60 62 62 63 64 67 69 68 67 65 63 59 58 56 54 52 51 52 52 52 53 57 60 63 64 66 64 62 60 57 56 53 53 54 55 55 58 59 60 63 66 68
58 60 61 60 60 61 63 67 68 68 64 62 61 60 58 55 52 52 51 53 52 53 56 59 61 61 61 60 59 57 56 54 54 54 55 59 61 62 64 66 68 70 72
60 63 62 61 59 58 61 62 66 66 62 62 62 61 59 55 53 50 52 52 51 52 54 56 55 56 57 58 58 56 55 54 55 57 60 63 66 68 70 72 74 75 76
57 61 62 61 60 58 59 61 61 66 63 63 61 60 59 58 54 53 53 52 52 52 51 51 53 56 58 58 57 55 54 55 58 62 65 68 69 73 76 78 80 81 84
57 59 60 59 60 62 62 61 60 61 66 63 61 60 59 57 55 55 53 54 54 52 54 54 56 57 54 54 55 55 56 58 62 66 72 74 77 80 82 84 87 91 92
58 56 57 55 57 61 65 65 60 56 62 64 62 61 59 58 57 56 56 56 55 54 53 54 53 52 53 53 56 58 61 64 67 69 73 80 81 85 88 93 97 101 102
56 57 56 55 55 59 65 68 64 59 62 63 64 62 61 59 58 57 57 58 57 54 54 52 52 54 57 58 60 62 65 69 71 72 75 79 83 91 95 99 103 107 109
Wind_Direction
267 268 273 271 270 271 271 269 262 260 261 261 262 262 262 264 270 274 280 278 281 288 287 288 284 283 286 289 290 290 292 296 298 299 305 300 300 301 296 298 297 292 288
265 266 267 270 269 267 266 268 270 263 259 261 261 261 262 266 275 278 277 279 281 280 285 284 284 288 287 286 289 290 292 294 298 302 304 302 302 304 299 295 294 288 289
259 262 262 261 265 264 265 263 265 267 266 263 262 262 263 265 271 273 277 277 278 277 280 284 283 287 287 288 291 291 292 295 296 300 302 304 307 305 298 295 293 290 288
257 258 259 260 259 262 262 262 259 262 264 262 262 260 264 266 269 272 273 277 278 277 279 281 283 287 288 290 290 291 292 293 298 298 303 307 308 305 299 296 295 291 287
253 255 255 257 257 256 258 259 258 258 260 261 260 262 265 267 269 270 271 274 278 279 279 281 282 284 287 289 292 293 292 297 298 298 302 306 306 304 303 302 296 290 284
250 250 253 252 254 255 256 255 257 256 257 259 260 261 263 266 269 271 273 275 276 278 278 278 281 282 285 288 289 290 294 298 301 303 306 307 305 304 304 303 295 288 284
247 249 251 251 251 251 251 253 254 255 256 258 261 261 262 265 267 270 273 275 276 276 277 277 281 286 287 288 288 294 299 302 303 304 307 306 306 306 305 300 292 289 285
246 246 247 248 249 252 250 251 252 253 255 256 260 262 263 264 267 269 272 273 275 277 278 280 282 287 288 286 292 297 299 301 303 304 305 306 305 305 304 296 291 286 284
250 246 246 246 246 248 254 253 253 253 253 255 258 260 262 264 265 266 270 272 273 275 278 283 284 280 285 288 292 295 296 300 304 305 305 304 306 306 301 293 292 288 286
251 251 247 246 246 245 247 249 260 256 255 253 256 258 262 263 265 267 269 271 272 277 279 285 284 282 285 287 290 293 295 299 303 306 303 304 306 304 295 291 290 290 291
252 251 251 250 248 246 247 247 251 258 254 251 255 257 259 262 265 269 270 275 276 278 280 280 281 283 286 288 288 292 296 297 300 303 304 303 303 296 288 290 290 292 293
251 252 250 251 251 249 248 248 248 251 252 257 262 262 257 259 264 267 271 271 274 277 275 276 280 284 284 286 289 292 294 296 298 302 302 303 301 287 283 285 286 288 286
248 249 250 249 249 250 250 250 247 250 252 255 257 258 261 265 268 267 268 272 274 275 276 276 282 283 283 285 288 292 293 295 298 301 301 300 295 286 282 286 289 287 287
250 250 249 249 249 251 251 249 250 251 254 255 255 258 260 263 266 267 270 272 275 276 279 280 280 282 283 286 288 289 291 294 297 299 298 296 288 282 286 287 288 290 293
250 250 251 250 249 250 250 250 251 253 255 255 257 259 261 263 264 266 268 270 273 275 277 279 278 281 283 285 285 287 287 293 297 294 293 291 284 285 288 289 291 293 294
254 253 252 251 250 249 249 251 253 253 254 254 255 258 262 263 266 267 269 271 274 275 278 279 278 278 280 282 283 284 287 292 293 290 288 286 281 282 285 285 285 286 288
256 256 254 254 252 250 251 252 256 256 257 258 259 260 262 264 267 269 270 272 273 275 274 275 277 277 277 279 281 283 286 290 288 285 284 279 279 282 283 283 285 285 285
260 257 254 253 252 252 251 252 255 258 259 261 263 264 265 268 270 271 273 273 274 274 274 274 275 276 278 278 278 279 283 284 282 282 279 277 278 281 282 285 285 286 287
258 258 256 253 251 251 251 251 252 256 258 261 263 266 267 269 273 277 277 276 274 273 273 273 274 274 276 276 276 278 282 279 280 277 277 278 279 281 284 285 286 286 285
257 257 258 256 254 252 249 249 250 253 255 259 262 266 267 270 272 276 277 277 274 274 273 274 275 275 274 274 277 279 277 277 275 275 277 278 281 283 284 284 286 286 288
255 258 259 260 256 254 251 250 249 249 252 255 259 264 267 270 272 273 274 276 276 275 275 276 276 276 275 276 278 277 277 276 273 274 277 278 280 283 285 286 288 288 289
253 255 257 258 257 254 252 250 249 246 248 252 255 260 265 268 271 272 273 275 277 278 279 279 276 276 278 278 279 279 275 272 274 277 279 280 282 284 286 286 288 289 289
255 254 254 257 258 257 253 251 248 247 244 247 251 256 260 264 268 271 273 274 274 277 276 276 276 278 279 280 279 277 274 275 278 280 281 283 285 287 289 289 290 290 290
259 258 257 256 258 256 254 250 247 246 246 245 247 251 256 261 265 268 270 272 274 275 276 277 278 279 280 278 277 278 278 280 281 284 287 288 290 292 293 293 292 292 291
260 261 259 258 258 255 253 249 246 240 242 244 245 248 253 257 261 265 269 272 274 275 275 276 279 280 278 278 279 280 281 282 283 285 287 290 292 293 294 295 295 295 296
259 262 263 262 260 256 251 247 243 243 241 242 244 247 250 254 259 263 267 271 272 273 273 276 278 279 280 282 283 286 286 287 287 287 288 290 292 295 297 298 299 299 299